Location: Cardiff
(53.7833°N, 113.6000°W)
Time: 05:26:27
(UTC+00:00)

SO-50 - Pass Details

Date: 08 December 2023
Orbit: 608 x 660 km, 64.6° (Epoch: 02 March)

Event Time Altitude Azimuth Distance (km) Brightness Sun altitude
Exits shadow 14:09:23 15° 317° (NW) 1,745 ? -12.1°
Maximum altitude 14:11:50 22° 356° (N) 1,421 ? -11.8°
Drops below altitude 10° 14:15:23 10° 47° (NE) 2,024 ? -11.3°
Sets 14:18:07 0° 63° (ENE) 2,921 ? -10.9°
